Location: Bukovany
(49.8234°N, 14.6297°E)
Time: 07:05:45
(UTC+00:00)

MOS 1 Rocket - Pass Details

Date: 17 November 2025
Orbit: 610 x 813 km, 97.4° (Epoch: 17 December)

Event Time Altitude Azimuth Distance (km) Brightness Sun altitude
Rises 16:53:29 0° 166° (SSE) 2,875 6.5 -15.6°
Reaches altitude 10° 16:55:37 10° 166° (SSE) 1,987 5.6 -16.0°
Maximum altitude 16:59:56 88° 256° (WSW) 646 3.1 -16.6°
Drops below altitude 10° 17:04:29 10° 347° (NNW) 2,091 5.8 -17.4°
Sets 17:06:47 0° 347° (NNW) 3,039 6.7 -17.7°
